Theta_e
316 317 317 317 316 318 318 318 319 319 319 320 320 319 319 319 319 319 319 320 321 321 321 321 322 323 316 305 308 325 342 338 320 317 315 314 307 302 299 303 305 302 307 311 315 315 313
316 316 316 316 315 315 317 317 317 318 318 319 319 319 319 319 319 319 318 318 318 319 320 321 323 323 312 299 317 328 324 320 317 313 314 313 307 307 303 303 301 306 306 309 311 312 317
316 316 316 315 315 315 315 315 316 316 317 318 318 318 318 318 318 319 318 317 317 318 320 321 323 319 307 302 313 322 320 317 318 319 317 317 313 307 305 302 306 307 302 305 309 309 315
315 315 315 315 315 314 315 315 315 315 316 316 317 317 318 318 318 318 318 316 317 318 319 321 323 314 304 313 314 314 313 313 320 322 320 319 316 309 303 306 306 301 301 297 304 308 311
315 315 314 314 314 314 314 314 314 315 315 316 316 316 316 316 317 317 317 316 316 318 320 322 316 312 304 320 313 316 315 314 313 314 315 321 311 304 306 300 297 298 293 296 301 307 309
315 315 314 314 314 314 314 315 314 314 314 315 315 315 315 315 315 315 315 315 317 319 321 320 317 306 311 313 314 317 316 315 310 310 311 309 304 299 298 295 290 294 294 296 298 305 310
314 314 314 314 314 314 314 314 314 314 314 314 315 314 314 314 314 314 312 312 311 309 310 308 310 310 312 316 320 313 315 311 310 306 301 304 297 294 297 300 302 301 299 298 301 306 308
313 314 313 313 313 314 314 314 314 314 314 314 314 314 314 313 313 313 310 310 307 305 298 307 309 312 316 317 311 312 315 306 305 300 304 301 295 302 305 305 304 302 300 299 303 306 307
313 313 313 313 313 314 314 313 313 313 313 313 313 313 313 313 312 313 314 310 313 310 298 304 307 307 312 314 310 309 311 308 303 300 302 299 300 307 304 302 302 301 298 299 300 306 308
312 313 313 313 313 313 313 313 313 313 314 313 313 313 314 313 312 312 312 316 315 311 294 303 303 307 308 311 307 315 313 307 303 299 303 301 306 304 302 301 302 296 305 305 303 300 296
312 313 313 313 313 313 313 313 313 313 313 313 313 314 314 312 308 310 314 317 316 309 289 306 305 313 309 305 307 308 315 308 302 301 301 300 302 302 300 302 305 301 307 304 303 298 294
312 312 312 313 313 312 312 312 313 313 312 312 313 314 313 312 311 315 317 317 313 294 291 302 307 305 303 304 305 308 308 311 308 303 304 302 308 305 303 306 306 307 303 301 300 296 289
311 311 312 312 312 312 312 312 312 312 312 312 312 312 311 312 309 317 315 312 293 288 304 300 302 305 304 302 303 304 302 301 298 292 295 300 302 307 308 301 304 302 295 289 288 289 289
311 311 311 312 312 312 311 312 312 312 311 311 311 310 311 314 317 315 311 303 288 298 297 302 302 303 301 303 303 303 301 298 302 300 295 293 293 302 307 303 299 300 298 290 287 289 291
310 311 311 311 312 311 311 311 312 311 310 310 309 314 312 316 317 314 305 294 294 299 302 300 300 297 297 301 301 302 299 300 302 302 294 293 295 306 308 307 304 299 297 300 294 296 291
310 310 310 311 311 311 312 312 312 312 311 310 308 311 313 318 318 311 299 295 299 304 304 302 294 298 293 297 297 298 300 306 304 305 304 299 293 303 307 307 305 301 303 295 294 288 286
310 310 310 310 311 311 312 312 312 312 310 309 308 308 314 317 314 304 294 297 302 306 305 300 297 296 297 296 297 296 300 305 309 308 305 301 297 298 303 301 299 298 297 296 296 295 289
309 310 310 310 311 311 311 312 312 311 309 311 311 303 315 316 299 302 297 302 302 304 306 302 301 299 297 298 296 295 296 303 310 309 304 303 297 294 297 306 308 303 298 297 293 292 296
309 309 310 310 310 311 311 311 312 311 310 308 305 308 315 312 294 296 301 302 303 302 301 301 299 300 300 296 293 297 299 306 310 308 305 306 297 292 295 302 304 302 302 300 302 302 297
308 309 310 309 311 311 311 311 312 311 310 309 306 301 307 308 304 299 299 299 299 304 302 302 300 300 297 295 297 295 297 304 310 308 312 311 300 296 292 298 301 299 302 303 299 297 297
308 309 309 309 310 311 311 311 312 311 310 309 306 304 306 297 300 301 301 300 297 297 302 302 298 297 295 292 294 295 301 304 307 309 306 303 296 302 302 305 306 303 303 302 300 301 299
308 309 308 308 310 311 311 311 312 311 310 307 302 302 304 301 302 300 298 298 298 300 299 298 297 301 299 295 296 294 300 301 299 304 302 302 298 303 300 305 305 304 304 303 303 304 305
309 309 307 309 310 310 311 312 312 311 309 308 311 312 306 300 300 297 297 299 299 300 301 303 302 300 298 299 304 304 306 305 303 300 299 298 302 300 296 305 305 300 304 303 303 306 314
309 309 307 308 309 310 311 312 312 311 310 308 309 310 303 296 299 298 300 299 298 300 298 302 303 300 304 308 307 305 303 304 304 303 303 297 298 302 297 303 292 304 311 310 308 316 314
308 307 307 308 308 310 311 313 312 312 311 307 309 309 304 297 299 299 299 299 300 302 301 302 305 308 309 304 297 295 296 300 301 303 302 303 302 299 298 298 304 307 309 311 312 311 316
306 306 307 307 308 308 311 313 313 311 311 308 309 315 308 298 296 301 298 299 297 297 299 302 307 311 311 301 297 292 290 297 297 303 307 305 311 304 301 294 295 306 312 319 316 305 321
307 306 306 306 307 309 310 312 315 312 312 310 312 316 307 299 301 302 298 298 301 299 297 300 304 305 308 298 295 294 294 300 295 300 301 303 304 300 297 297 304 311 314 316 302 306 317
307 307 306 307 306 308 310 312 314 312 312 311 310 315 308 301 300 303 304 300 301 301 296 301 300 303 303 296 296 297 295 300 302 304 303 301 298 297 300 297 295 314 315 310 317 317 316
307 307 307 307 307 308 310 311 314 313 312 313 307 314 313 302 301 306 306 307 307 306 302 302 302 302 304 301 302 302 299 302 298 294 309 298 303 301 309 305 310 316 317 322 319 323 325
Wind_Speed
12 14 14 15 17 16 16 15 15 16 15 13 13 15 16 15 16 17 17 17 18 19 18 18 19 20 12 4 9 7 9 6 5 4 5 6 6 5 7 6 9 6 10 10 9 7 4
12 13 14 15 16 16 16 16 16 17 17 16 15 15 16 16 17 18 20 18 18 18 18 17 17 18 2 5 1 11 9 6 7 4 7 9 7 9 7 8 5 8 8 12 8 6 7
13 14 15 15 16 17 18 18 17 16 16 16 16 16 15 17 18 19 20 19 18 19 18 17 16 6 6 17 2 6 9 8 6 9 10 10 7 3 6 10 9 10 8 9 9 7 6
14 14 15 16 16 17 17 17 18 18 17 17 16 17 18 20 19 20 22 21 19 20 20 17 9 4 10 9 9 10 11 7 9 10 7 8 8 6 3 7 11 8 5 4 9 8 9
14 14 15 15 16 17 17 17 17 18 18 17 17 18 18 19 22 23 20 24 25 21 20 13 2 4 11 8 5 10 10 11 9 7 7 8 5 4 6 4 7 6 5 8 12 9 8
13 14 14 15 15 15 16 17 18 18 19 19 18 18 19 22 22 23 25 25 15 5 7 7 8 5 8 6 6 10 8 6 7 6 7 5 1 4 5 2 7 8 6 8 9 13 11
13 14 15 16 17 16 17 18 19 20 20 21 20 21 22 23 23 20 14 7 3 2 5 8 8 7 9 3 7 7 7 7 7 6 7 7 3 8 12 11 10 11 8 10 11 14 7
13 13 14 16 17 17 17 17 18 19 21 22 23 23 23 24 26 25 6 4 6 6 10 15 23 21 24 13 8 6 5 8 7 12 7 7 9 12 12 12 13 15 13 11 12 14 8
12 13 15 17 17 16 18 18 18 19 19 21 22 24 25 28 29 11 4 5 8 7 4 9 15 12 12 9 14 9 10 8 7 9 13 11 10 15 15 14 13 13 10 10 9 8 3
12 14 15 15 14 15 17 18 18 19 20 20 21 22 23 27 7 8 5 11 9 7 5 6 8 6 8 6 11 13 11 10 7 11 15 12 15 18 12 15 13 9 10 14 10 2 3
14 14 14 14 14 16 17 18 19 19 20 21 21 21 22 13 8 7 12 13 9 4 3 12 7 9 12 11 3 12 16 9 15 13 8 14 9 13 17 15 17 12 11 6 9 6 1
13 14 14 14 15 16 17 18 18 20 21 22 21 19 17 6 3 11 13 12 6 1 1 2 5 8 9 12 13 10 6 10 6 10 17 14 11 16 14 16 10 8 4 6 5 5 3
12 13 14 15 16 17 18 19 19 20 21 23 23 18 10 7 5 12 10 6 2 2 7 10 8 15 10 3 14 12 10 10 12 6 14 14 21 20 17 12 11 5 4 2 3 3 7
12 13 13 15 16 17 19 20 19 20 20 24 25 21 6 8 10 9 7 3 2 11 14 16 13 15 11 12 13 9 11 12 13 16 9 11 16 19 13 20 11 8 9 7 8 4 4
13 13 14 16 16 17 18 20 20 20 20 21 25 3 3 3 9 4 4 2 4 11 14 17 16 8 7 14 16 13 6 14 14 17 15 6 20 14 20 14 15 7 12 7 3 4 1
13 13 14 14 15 17 18 19 20 20 20 18 7 5 1 6 4 4 2 4 5 11 14 11 10 11 12 14 15 14 11 8 12 15 17 16 18 24 17 13 7 10 5 10 5 6 5
12 13 13 14 15 17 18 19 20 20 22 20 3 3 2 4 2 1 2 4 11 11 12 9 14 16 17 17 17 19 14 18 16 14 13 18 12 27 17 10 10 3 8 4 6 6 7
12 13 14 15 15 16 17 18 19 18 24 8 4 3 1 4 2 3 4 6 12 14 12 8 8 14 14 16 19 19 22 13 23 22 24 16 8 14 25 26 15 13 11 10 7 9 4
12 13 13 14 15 16 17 17 17 16 14 6 5 4 1 1 2 4 9 11 14 12 12 14 11 14 16 18 17 19 22 21 15 24 16 23 14 12 13 9 12 19 10 8 6 4 7
11 12 12 13 14 15 16 17 17 14 12 4 4 4 2 2 4 4 6 8 11 13 14 14 15 15 17 16 19 19 24 24 11 19 40 20 13 15 17 9 6 8 12 10 8 4 4
11 13 13 13 15 15 16 16 16 13 11 3 4 2 4 4 6 8 6 10 13 12 14 10 10 13 14 15 17 19 8 14 12 20 19 11 14 10 16 18 8 9 15 14 8 9 7
11 13 13 13 14 15 15 16 15 11 10 3 3 4 5 8 7 8 6 7 13 13 12 12 12 14 15 15 9 20 6 5 8 21 23 18 9 8 10 9 14 12 15 17 14 9 7
11 12 12 13 13 15 15 14 15 9 1 4 3 4 2 5 6 5 6 9 15 17 13 16 21 6 12 14 7 4 7 4 10 20 28 15 9 7 5 2 6 7 9 18 13 13 15
11 11 12 13 14 16 16 17 12 10 9 5 3 4 3 5 7 6 12 15 14 15 20 21 17 15 11 12 10 6 9 11 16 24 21 19 18 4 5 3 5 7 13 13 10 8 21
10 10 12 13 14 16 17 16 11 8 8 4 5 3 3 5 7 12 12 13 15 16 17 18 19 17 11 7 4 6 4 5 16 23 26 17 7 6 7 5 5 14 17 4 22 9 19
10 11 11 12 14 16 16 16 11 5 6 3 6 2 2 3 6 7 12 12 9 7 10 11 23 15 10 4 4 2 2 6 10 6 14 13 11 3 4 4 12 11 10 15 18 7 10
9 10 11 12 14 15 16 16 14 5 6 4 3 1 1 3 8 9 5 5 5 7 7 12 11 11 13 4 5 2 4 4 9 7 4 3 3 4 2 2 3 7 4 9 8 14 16
9 9 11 11 13 15 16 16 13 7 6 4 3 2 2 3 9 11 14 14 8 6 6 5 10 3 7 4 3 2 4 6 9 8 4 5 4 2 2 3 4 6 8 3 2 11 21
9 10 10 11 12 14 15 15 13 7 7 6 3 2 3 3 7 13 17 19 20 22 13 7 7 8 6 5 6 3 6 2 7 7 14 2 5 3 3 5 11 6 11 9 10 23 18
Wind_Direction
21 20 15 14 15 13 11 10 4 357 351 343 342 340 335 324 318 315 311 307 307 310 313 321 326 329 345 320 253 161 152 169 175 160 239 257 278 269 274 269 283 273 266 278 269 150 259
23 21 19 16 12 11 9 6 3 358 350 346 341 337 330 324 317 312 312 311 304 303 308 319 324 322 255 275 149 151 157 154 214 201 246 248 249 238 271 273 270 275 296 267 275 278 191
25 22 19 16 14 9 6 2 360 356 350 345 340 332 324 320 316 313 310 306 302 301 302 310 318 303 270 240 272 151 177 192 204 220 250 267 277 316 308 323 281 296 307 308 257 255 215
23 20 17 13 12 10 5 360 356 352 346 342 338 333 327 322 316 313 311 307 298 293 295 296 309 264 252 260 259 278 238 230 223 225 257 306 315 307 306 306 331 318 339 317 283 267 263
20 15 12 11 9 5 1 357 354 349 344 339 334 329 325 319 316 315 311 304 291 284 279 281 260 223 261 258 206 244 235 211 230 232 262 263 345 291 307 280 327 299 250 280 278 264 234
14 11 11 9 7 2 356 353 348 345 342 340 335 330 324 321 321 317 311 292 276 300 234 229 252 271 261 232 217 217 234 231 235 228 229 222 245 225 292 163 211 239 222 254 244 258 207
11 10 9 6 5 2 355 351 346 342 340 339 337 332 327 322 319 316 332 341 25 49 232 218 187 248 299 292 281 176 205 203 240 254 218 232 176 226 225 229 233 244 255 239 260 261 192
10 9 7 7 3 356 352 348 344 340 338 336 333 331 327 323 319 317 284 321 11 253 289 249 252 247 262 283 279 180 204 186 202 223 193 251 224 231 236 239 233 247 256 266 270 257 192
6 6 7 4 357 351 348 344 342 338 335 331 328 328 329 327 321 309 254 16 298 320 273 274 221 241 229 233 264 227 180 213 216 235 231 207 235 221 237 258 255 244 232 255 244 304 46
3 5 4 357 349 347 343 342 339 336 333 329 327 325 327 333 333 340 335 343 323 7 348 273 182 244 203 246 277 253 195 181 216 238 239 241 230 249 234 237 249 256 250 240 266 33 222
2 3 359 351 347 346 342 339 339 336 333 329 326 327 329 327 298 316 339 326 314 41 31 137 131 164 152 184 238 213 232 196 213 232 241 234 243 249 241 242 236 241 249 251 271 281 282
357 358 354 350 348 346 341 338 339 337 333 327 323 325 339 344 258 259 289 309 316 295 280 113 130 185 147 203 249 277 217 235 274 247 257 253 246 239 249 266 257 239 284 323 312 235 254
355 354 350 348 349 344 341 338 337 335 331 327 321 317 317 308 266 299 321 309 352 271 328 19 1 4 340 245 210 215 233 224 214 234 247 274 264 262 236 253 275 208 130 310 313 330 216
351 349 348 348 347 344 342 339 336 335 333 329 322 315 261 249 280 312 323 323 1 343 17 2 6 338 326 321 309 237 209 229 220 230 268 223 258 254 245 217 214 213 175 166 198 210 252
348 346 347 348 345 344 341 339 337 337 333 331 317 283 254 236 242 331 338 302 340 2 359 346 340 336 348 331 312 315 251 214 227 204 221 259 248 260 231 239 181 229 224 189 236 219 38
345 345 345 345 343 342 340 339 338 336 332 335 323 291 234 358 57 333 336 285 319 331 335 353 326 324 317 319 318 322 316 322 268 235 207 233 268 272 273 223 210 171 195 203 229 189 234
343 342 342 342 342 341 340 339 337 337 332 327 270 271 90 344 359 313 266 294 324 315 343 348 323 310 310 309 304 307 303 315 294 329 243 216 216 263 271 233 176 206 233 248 146 164 186
339 339 339 340 339 339 339 340 339 344 339 344 296 290 134 309 335 231 242 289 328 331 321 296 303 301 294 299 296 287 289 278 292 307 308 246 196 239 255 267 213 186 205 184 194 246 205
332 335 336 337 337 337 337 337 337 347 4 322 300 285 163 312 297 342 347 326 330 323 329 327 310 306 305 301 297 288 285 288 304 329 307 296 217 235 276 298 207 191 205 205 178 137 185
329 331 332 334 334 334 334 333 335 341 347 322 287 303 144 184 223 236 310 318 328 333 314 313 308 310 306 285 288 290 289 281 325 320 309 305 233 194 226 225 170 187 206 224 167 152 192
325 326 329 330 331 330 330 328 328 333 338 315 264 313 14 315 335 341 320 314 304 303 293 322 303 284 295 299 305 289 314 313 307 320 319 315 201 178 224 241 301 243 199 221 203 199 161
320 322 325 327 328 327 320 320 320 326 329 270 297 3 354 302 299 305 295 268 310 316 330 302 289 331 334 280 285 282 337 0 312 309 317 326 269 168 221 216 250 242 213 220 224 192 142
314 316 319 322 325 322 319 314 311 307 306 289 315 328 324 290 289 300 294 327 315 320 298 314 315 288 305 292 317 256 152 229 248 281 293 299 310 124 231 259 350 268 250 208 224 212 143
309 314 317 323 327 322 323 315 303 283 212 322 312 307 298 277 290 297 313 310 312 306 299 293 294 294 259 272 295 246 254 234 256 266 259 264 276 266 144 90 257 265 296 281 91 87 104
320 318 321 324 327 326 323 322 316 287 214 249 284 304 311 289 312 302 294 306 313 301 299 302 293 305 288 289 288 293 306 324 272 251 255 237 234 265 128 190 20 318 285 193 111 52 120
310 315 319 322 324 329 324 325 325 290 194 245 272 284 291 313 251 339 335 303 303 320 312 309 323 313 286 197 212 240 89 307 302 230 209 225 207 207 116 160 189 188 334 29 98 121 149
307 311 318 319 322 326 324 319 317 262 211 231 284 353 254 272 267 282 263 294 288 287 284 305 329 327 317 250 268 83 248 209 250 236 178 177 218 162 66 266 48 331 306 232 164 176 185
302 308 313 315 317 322 321 315 312 243 219 218 278 193 211 251 279 268 274 273 273 271 263 310 323 359 285 236 234 107 284 290 320 327 285 172 132 145 81 55 282 264 11 83 318 126 153
300 305 308 312 314 317 318 310 312 243 228 212 264 168 108 201 268 299 274 259 254 251 265 259 267 333 285 334 351 18 248 322 348 296 332 303 154 158 91 213 162 201 127 333 294 143 143